Rifle, CO

8:01 PM MDT on May 27, 2017 (GMT -0600)
Garfield County Regional

Weather History for KRIL - September, 2013

Change the Weather History Date:

Wednesday, September 4, 2013

  Actual Average Record
Temperature  
Mean Temperature 80 °F 66 °F  
Max Temperature 95 °F 83 °F 95 °F (1924)
Min Temperature 64 °F 48 °F 32 °F (1959)
Degree Days  
Heating Degree Days 0 1  
Month to date heating degree days 0 4  
Since 1 July heating degree days 0 11  
Cooling Degree Days 15 2  
Month to date cooling degree days 43 8  
Year to date cooling degree days 749 524  
Growing Degree Days 28 (Base 50)    
Moisture  
Dew Point 47 °F    
Average Humidity 39    
Maximum Humidity 63    
Minimum Humidity 15    
Precipitation  
Precipitation T in 0.05 in 0.77 in (2004)
Month to date precipitation T 0.19  
Year to date precipitation 5.09 9.16  
Sea Level Pressure  
Sea Level Pressure 30.02 in    
Wind  
Wind Speed 4 mph (ESE)    
Max Wind Speed 36 mph    
Max Gust Speed 45 mph    
Visibility 10 miles    
Events Rain , Thunderstorm    
T = Trace of Precipitation, MM = Missing Value Source: NWS Daily Summary

Daily Weather History Graph

Daily Weather History Graph

Search for Another Location

Airport or City:

Trip Planner

Search our weather history database for the weather conditions in past years. The results will help you decide how hot, cold, wet, or windy it might be!

Date:

Astronomy

Sep. 04, 2013 Rise Set
Actual Time 6:42 AM MDT 7:36 PM MDT
Civil Twilight 6:14 AM MDT 8:04 PM MDT
Nautical Twilight 5:42 AM MDT 8:36 PM MDT
Astronomical Twilight 5:08 AM MDT 9:10 PM MDT
Moon 5:57 AM MDT (9/4) 6:58 PM MDT (9/4)
Length of Visible Light 13h 49m
Length of Day
12h 54m
Waning Crescent, 1% of the Moon is Illuminated
Sep 4
Waning Crescent
Sep 5
New
Sep 12
First Quarter
Sep 19
Full
Sep 26
Last Quarter

Hourly Weather History & Observations

Time (MDT) Temp. Dew Point Humidity Pressure Visibility Wind Dir Wind Speed Gust Speed Precip Events Conditions
12:53 AM 69.1 °F 46.0 °F 44% 29.97 in 10.0 mi East 3.5 mph - N/A   Clear
1:53 AM 68.0 °F 48.9 °F 50% 29.97 in 10.0 mi Calm Calm - N/A   Clear
2:53 AM 66.9 °F 48.0 °F 51% 29.99 in 10.0 mi Calm Calm - N/A   Clear
3:53 AM 68.0 °F 46.9 °F 47% 29.99 in 10.0 mi Calm Calm - N/A   Partly Cloudy
4:53 AM 64.9 °F 52.0 °F 63% 30.02 in 10.0 mi Calm Calm - N/A   Clear
5:53 AM 66.0 °F 46.0 °F 48% 30.02 in 10.0 mi Calm Calm - N/A   Clear
6:53 AM 66.0 °F 46.0 °F 48% 30.05 in 10.0 mi Calm Calm - N/A   Clear
7:53 AM 66.0 °F 48.9 °F 54% 30.08 in 10.0 mi Calm Calm - N/A   Clear
8:53 AM 66.9 °F 48.9 °F 52% 30.10 in 10.0 mi Calm Calm - N/A   Clear
9:53 AM 72.0 °F 46.9 °F 41% 30.10 in 10.0 mi Calm Calm - N/A   Clear
10:53 AM 78.1 °F 48.0 °F 35% 30.08 in 10.0 mi Variable 3.5 mph - N/A   Clear
11:53 AM 82.9 °F 46.0 °F 27% 30.04 in 10.0 mi Calm Calm - N/A   Clear
12:53 PM 89.1 °F 44.1 °F 21% 30.01 in 10.0 mi NE 4.6 mph - N/A   Clear
1:53 PM 91.0 °F 44.1 °F 20% 29.98 in 10.0 mi NNE 3.5 mph - N/A   Clear
2:53 PM 91.9 °F 43.0 °F 18% 29.94 in 10.0 mi WNW 6.9 mph - N/A   Clear
3:53 PM 91.9 °F 42.1 °F 18% 29.91 in 10.0 mi North 3.5 mph - N/A   Clear
4:53 PM 93.9 °F 39.0 °F 15% 29.90 in 10.0 mi Calm Calm - N/A   Clear
5:53 PM 93.0 °F 41.0 °F 16% 29.89 in 10.0 mi South 6.9 mph - N/A   Clear
6:23 PM 91.4 °F 44.6 °F 20% 30.14 in 10.0 mi South 15.0 mph - N/A Thunderstorm Clear
6:53 PM 84.0 °F 46.0 °F 26% 29.93 in 10.0 mi South 32.2 mph 43.7 mph N/A Thunderstorm Scattered Clouds
7:28 PM 78.8 °F 48.2 °F 34% 30.15 in 10.0 mi South 20.7 mph 29.9 mph 0.00 in Rain , Thunderstorm Light Rain
7:53 PM 81.0 °F 46.9 °F 30% 29.95 in 10.0 mi Variable 4.6 mph - 0.00 in Thunderstorm Thunderstorm
8:05 PM 80.6 °F 48.2 °F 32% 30.19 in 10.0 mi NE 15.0 mph 19.6 mph N/A   Mostly Cloudy
8:53 PM 79.0 °F 48.9 °F 35% 30.01 in 10.0 mi NNE 6.9 mph - N/A   Overcast
9:53 PM 75.0 °F 51.1 °F 43% 30.04 in 10.0 mi SE 10.4 mph - 0.00 in   Scattered Clouds
10:53 PM 73.9 °F 52.0 °F 46% 30.02 in 10.0 mi Calm Calm - N/A   Clear
11:53 PM 72.0 °F 51.1 °F 48% 30.01 in 10.0 mi SW 5.8 mph - N/A   Clear